User: anonymous   Login
Location: Unspecified
(0.0000°N, 0.0000°E)
Time: 12:40:17
(UTC+00:00)
Language:

PERSEUS M1 - Orbit

View from above orbital plane
View from above orbital plane
View from above satellite
View from above satellite

Ground track
Ground track

The orbit data is extracted from the following two-line orbital elements,

1 40039U 14033AF  21015.68887852  .00000124  00000-0  20380-4 0  9992
2 40039  97.8861 294.9518 0013736 340.4030  19.6656 14.86236761356099
Epoch (UTC): 15 January 2021 16:31:59
Eccentricity: 0.0013736
inclination: 97.8861°
perigee height: 600 km
apogee height: 619 km
right ascension of ascending node: 294.9518°
argument of perigee: 340.4030°
revolutions per day: 14.86236761
mean anomaly at epoch: 19.6656°
orbit number at epoch: 35609

The dashed part of the orbit path shows where the satellite is in the earth's shadow,  

DLR